Volver al catálogo

STARLINK-35709

ActivoComunicacionesVLEO
NORAD 66216·PAYLOAD·🇺🇸 United States

Lanzado Oct 28, 2025 desde Vandenberg Space Force Base

Loading…

Próximos Pases (próximas 24 horas)

TLE

ActualizadoSource: CelesTrak SupGP

Época: Sep 14, 2026, 21:33 UTC

1 66216C 25244L   26257.89840278  .00020533  00000+0  60695-3 0  2574
2 66216  53.1601  69.6939 0000979  67.9601  71.2800 15.34366074    13

Sigue STARLINK-35709 en tiempo real con AllMySat

Download on the App Store